Wind_Speed
23 23 23 23 23 23 24 24 24 23 22 22 22 22 22 21 21 21 21 21 21 21 22 22 22 22 23 23 22 22 22 23 23 24 23 24 24 24 23 23 23 23 23
24 25 25 25 24 24 25 26 25 25 24 23 23 23 22 22 21 22 21 22 22 22 23 23 23 23 23 23 24 23 23 23 23 24 24 25 25 25 24 24 24 24 24
26 25 25 25 25 25 26 26 26 26 24 24 24 24 23 23 22 22 22 22 22 23 23 24 24 25 24 25 25 24 24 24 24 25 25 26 26 25 25 25 25 25 25
26 25 25 25 25 25 25 25 26 26 25 25 25 25 25 24 23 23 23 23 23 23 24 25 26 26 25 25 25 25 25 25 25 25 26 26 27 26 26 26 26 26 26
25 25 25 24 25 26 26 25 25 25 25 25 25 25 25 25 24 24 24 24 24 24 24 25 26 27 27 26 26 26 27 26 26 26 26 26 26 26 26 26 26 26 27
25 24 24 24 24 25 26 25 25 25 25 25 25 25 25 25 25 25 25 24 24 24 24 25 25 26 26 26 26 26 26 26 26 26 26 26 27 27 27 27 27 27 28
25 24 23 23 23 23 24 24 24 24 23 24 24 23 24 24 24 24 25 25 25 24 24 24 24 24 25 25 25 25 25 26 26 27 27 27 27 28 28 28 28 28 28
25 24 24 24 24 24 23 24 24 23 24 24 23 23 23 24 24 24 24 24 25 24 24 24 24 25 25 26 26 26 27 26 27 27 27 28 28 29 29 29 29 29 29
26 25 25 25 25 24 23 23 23 24 24 23 23 23 23 24 25 24 25 24 24 25 25 25 25 25 25 26 27 27 27 27 28 28 28 29 29 29 30 30 30 31 30
25 25 25 24 23 23 23 23 24 24 24 24 23 23 23 24 25 25 25 25 25 25 25 26 25 25 26 27 27 28 29 29 29 29 29 29 30 30 31 31 31 31 32
25 25 25 24 23 22 21 22 23 24 24 24 24 24 23 24 24 25 25 25 25 25 25 26 26 26 27 27 28 29 29 30 30 30 30 30 31 31 32 32 32 32 32
24 23 24 23 22 22 21 22 23 23 24 24 24 24 23 23 23 24 24 25 25 25 26 26 27 27 28 29 30 30 30 31 31 31 31 31 31 32 32 33 33 33 33
21 22 22 22 21 21 21 21 22 22 22 23 23 23 23 23 23 23 24 25 25 26 26 27 28 28 29 30 30 31 31 31 32 32 32 32 32 33 33 34 34 34 34
21 21 22 22 22 21 20 21 22 22 22 22 22 22 22 22 23 24 24 25 26 26 27 28 28 28 29 29 30 30 31 32 32 32 33 33 33 34 34 35 35 36 36
21 20 20 21 22 21 21 21 22 23 22 21 22 23 22 22 23 24 24 25 25 25 25 27 27 28 29 29 30 30 31 31 32 33 34 35 35 35 35 36 36 37 37
21 20 19 20 20 21 21 21 21 22 23 22 22 23 22 22 22 23 24 25 25 25 25 26 26 27 28 28 29 30 30 32 33 34 35 35 35 35 36 36 37 37 38
19 19 18 19 20 20 20 20 20 21 21 21 21 21 22 22 22 22 23 23 23 23 23 24 25 26 26 27 27 28 29 30 31 31 32 34 36 36 37 37 37 38 39
19 18 17 18 18 19 19 19 19 19 20 20 20 20 20 21 21 21 20 20 21 22 22 22 23 24 24 24 25 25 27 28 29 30 31 32 35 36 36 37 37 38 39
18 18 17 17 17 18 19 18 18 18 18 18 18 18 18 18 19 20 20 20 21 21 21 22 22 23 23 23 23 24 25 26 28 29 31 32 33 34 36 36 36 37 38
17 17 18 18 18 17 16 15 15 16 16 17 17 17 17 18 19 19 20 20 20 20 20 20 21 21 22 22 23 24 25 25 26 27 28 29 30 31 33 34 35 36 37
18 17 17 17 17 16 16 15 15 16 16 16 16 17 17 18 18 18 19 18 18 18 18 18 19 20 21 22 22 23 24 24 24 25 26 27 28 29 30 32 33 34 34
17 16 17 17 17 17 16 16 16 16 17 17 17 17 18 18 18 18 18 18 18 18 18 18 18 19 20 21 23 23 23 23 22 23 25 26 26 27 28 30 31 33 34
16 16 17 17 17 17 18 17 17 17 17 17 17 17 18 19 19 19 19 18 18 17 17 18 18 19 20 21 22 22 22 22 22 23 24 24 25 26 27 28 30 31 32
17 17 17 17 17 17 18 17 17 17 17 17 17 17 18 18 18 18 18 18 17 17 17 18 18 18 19 20 21 21 22 22 23 23 24 24 25 26 27 28 29 30 31
19 18 18 17 17 17 16 17 17 17 17 17 17 17 18 17 16 16 17 17 17 16 17 18 17 17 19 20 20 21 21 22 22 23 24 24 25 26 26 27 28 29 30
18 18 17 17 17 16 16 16 16 16 17 17 17 17 17 16 16 16 16 16 16 16 17 17 17 18 19 20 20 21 22 22 22 23 24 24 24 25 25 25 26 27 28
Wind_Direction
287 284 280 278 278 277 276 276 276 275 274 273 272 271 270 269 268 268 265 264 265 265 264 262 260 260 260 259 260 259 259 256 252 250 251 249 247 247 247 247 246 246 246
287 283 280 277 278 278 277 276 275 274 274 272 272 270 269 269 268 266 264 263 263 263 264 263 262 261 260 259 258 257 258 257 253 252 251 251 248 247 247 247 248 247 247
287 283 279 278 279 278 277 276 274 273 271 272 270 268 267 267 267 265 263 263 263 262 263 263 262 261 259 256 255 255 256 255 254 251 251 252 249 248 248 248 248 248 248
288 284 280 280 278 279 278 276 273 272 271 271 269 266 266 266 266 265 263 263 264 264 263 261 261 260 258 255 254 254 254 255 254 252 251 252 252 250 249 249 250 250 249
289 286 283 281 279 278 276 275 273 272 270 269 267 265 265 265 265 264 263 263 265 264 264 261 259 257 256 256 256 256 256 256 255 253 251 252 252 252 251 251 251 251 251
290 288 284 283 280 278 276 275 274 273 271 268 266 265 265 265 265 264 264 265 265 265 265 261 259 257 257 256 256 257 256 256 255 254 253 252 252 253 253 253 252 252 253
288 287 284 282 280 279 277 275 275 273 272 270 268 267 265 265 266 267 266 266 266 266 264 260 258 259 257 256 255 256 256 255 255 256 255 254 253 253 253 254 254 254 253
286 286 284 280 278 278 276 274 275 273 273 273 270 269 267 265 265 267 267 267 267 265 261 258 256 257 257 257 256 257 256 255 256 257 256 255 254 253 252 253 254 255 255
284 283 282 277 275 275 273 274 273 272 272 272 269 271 268 265 265 265 265 266 266 264 261 258 256 256 256 255 256 257 257 256 257 258 257 256 255 254 254 254 254 255 255
283 284 282 278 276 274 273 273 273 270 269 270 269 270 269 266 265 266 266 264 263 263 262 260 259 258 257 256 257 258 259 258 258 259 258 257 256 254 254 254 255 255 253
284 284 282 278 277 275 274 276 275 271 269 268 269 269 268 265 265 265 264 263 262 262 261 260 260 260 260 260 260 260 259 258 258 259 258 256 256 255 254 254 254 254 253
284 282 279 276 275 274 273 275 276 275 272 269 269 268 267 266 267 266 263 263 264 264 262 261 262 262 263 263 262 261 260 259 258 258 258 257 256 255 255 254 253 254 254
283 280 277 274 273 273 273 273 275 276 273 271 269 267 266 265 266 267 265 264 265 266 264 263 263 263 263 263 262 260 260 259 258 258 258 258 257 256 255 255 255 255 254
284 283 279 274 273 274 273 273 274 274 275 273 271 269 268 266 267 267 268 267 267 266 266 265 264 263 264 263 263 262 261 260 259 259 259 258 258 258 257 256 256 256 255
289 287 284 279 277 276 273 272 275 274 275 273 271 269 269 269 268 268 269 270 269 267 266 265 264 264 265 265 264 263 264 263 261 262 260 259 259 259 259 258 258 257 256
293 290 285 280 277 278 275 271 270 274 275 276 275 269 268 269 271 271 271 272 271 269 268 268 267 267 268 267 265 266 266 265 264 263 261 260 259 259 259 260 259 258 256
295 291 286 279 278 277 275 272 271 274 274 276 276 272 268 269 271 272 273 273 272 272 272 269 268 269 270 270 269 269 269 267 267 266 264 262 261 261 261 262 261 259 258
296 293 290 283 278 277 277 272 271 271 274 276 275 275 272 272 273 273 275 277 276 274 272 270 269 271 272 273 272 272 272 270 269 269 268 266 263 262 263 262 263 262 260
298 293 291 288 285 284 280 276 272 273 276 277 277 277 276 274 275 276 278 278 278 276 273 271 270 272 273 275 276 275 274 273 271 271 270 269 267 265 264 263 264 263 261
297 295 292 289 289 288 285 280 275 275 277 278 278 277 277 277 278 279 279 278 277 277 277 276 275 275 274 275 278 278 277 278 277 276 275 273 271 269 267 266 266 264 262
303 297 293 291 291 289 287 281 277 278 279 280 278 276 277 280 280 280 279 279 279 280 279 279 279 278 277 276 279 282 281 280 279 279 278 277 275 273 270 269 267 266 264
305 298 298 295 294 292 287 284 281 279 277 277 276 277 278 280 281 280 279 282 283 283 281 281 281 281 280 280 282 283 284 282 280 280 279 279 279 277 274 272 269 267 265
306 302 298 295 292 289 287 285 284 283 280 277 278 278 280 279 277 277 279 282 284 285 285 284 285 283 283 284 285 284 284 283 283 284 283 282 281 280 277 274 272 269 266
302 302 300 298 293 290 287 286 284 284 283 281 280 280 281 278 275 275 277 282 282 282 286 287 287 286 285 287 289 287 285 285 286 286 287 284 283 282 281 278 276 274 271
301 301 300 297 295 290 286 285 285 284 286 284 281 280 283 282 279 277 278 279 279 283 288 290 290 291 290 291 291 289 288 288 288 289 288 287 285 284 284 283 280 278 276
303 302 299 297 296 292 288 288 289 287 287 285 283 281 281 281 280 280 279 278 279 283 286 288 290 293 294 295 295 293 292 292 291 289 288 288 286 285 285 284 285 282 279
Height
5824 5823 5823 5822 5822 5822 5822 5821 5822 5822 5823 5823 5823 5823 5823 5823 5824 5824 5825 5826 5827 5827 5828 5829 5830 5832 5833 5834 5835 5836 5837 5838 5840 5841 5842 5844 5846 5848 5850 5851 5853 5855 5856
5818 5817 5817 5817 5816 5816 5816 5816 5816 5816 5816 5817 5817 5817 5817 5818 5818 5819 5820 5820 5821 5822 5822 5823 5824 5825 5827 5828 5830 5831 5832 5833 5834 5836 5837 5839 5841 5843 5844 5846 5848 5850 5851
5811 5811 5811 5811 5810 5810 5810 5809 5809 5810 5810 5810 5811 5811 5811 5812 5813 5813 5814 5815 5815 5816 5816 5817 5818 5819 5821 5822 5824 5825 5826 5827 5829 5830 5832 5834 5836 5837 5839 5840 5842 5844 5846
5805 5804 5804 5804 5803 5803 5802 5803 5803 5803 5803 5803 5804 5805 5805 5806 5807 5807 5808 5809 5809 5810 5810 5811 5812 5813 5815 5816 5818 5819 5820 5822 5823 5825 5826 5828 5829 5831 5833 5835 5836 5838 5840
5798 5797 5797 5797 5796 5796 5796 5796 5796 5796 5796 5796 5797 5798 5798 5799 5800 5801 5802 5802 5803 5803 5804 5805 5805 5806 5808 5810 5811 5812 5814 5815 5817 5818 5820 5821 5823 5825 5827 5829 5831 5832 5834
5791 5790 5790 5790 5789 5789 5789 5789 5790 5789 5789 5790 5790 5791 5791 5792 5793 5794 5795 5795 5796 5797 5797 5798 5799 5800 5801 5803 5804 5806 5807 5809 5810 5812 5813 5815 5817 5818 5820 5822 5824 5826 5827
5785 5784 5783 5783 5783 5782 5783 5783 5783 5782 5782 5783 5783 5784 5784 5785 5786 5787 5788 5789 5789 5790 5790 5791 5792 5794 5795 5796 5798 5799 5801 5802 5804 5805 5807 5808 5810 5812 5813 5815 5817 5819 5820
5778 5777 5777 5776 5776 5776 5776 5776 5775 5775 5776 5776 5776 5777 5778 5779 5780 5781 5781 5782 5783 5783 5784 5785 5786 5787 5789 5790 5791 5793 5794 5795 5797 5798 5799 5801 5802 5804 5806 5807 5809 5811 5813
5771 5770 5770 5769 5770 5769 5769 5769 5769 5769 5769 5769 5769 5770 5771 5772 5774 5775 5775 5775 5775 5776 5777 5778 5779 5780 5781 5783 5784 5785 5787 5788 5789 5790 5792 5793 5794 5796 5798 5799 5801 5803 5804
5763 5762 5762 5762 5762 5762 5762 5762 5762 5762 5762 5763 5763 5764 5764 5765 5766 5767 5768 5768 5768 5769 5769 5770 5771 5773 5774 5775 5776 5777 5779 5780 5781 5782 5784 5785 5786 5788 5789 5791 5793 5794 5796
5756 5755 5754 5754 5755 5755 5755 5755 5755 5755 5756 5756 5756 5757 5757 5758 5758 5759 5760 5761 5761 5762 5762 5763 5764 5765 5766 5767 5768 5769 5770 5771 5772 5774 5775 5776 5778 5779 5781 5782 5784 5786 5787
5748 5748 5747 5747 5748 5748 5749 5749 5749 5749 5749 5749 5750 5750 5751 5751 5751 5752 5753 5753 5754 5755 5755 5756 5756 5757 5757 5758 5759 5760 5761 5762 5763 5765 5766 5767 5769 5770 5772 5773 5775 5777 5778
5742 5741 5741 5741 5741 5742 5742 5742 5743 5743 5743 5743 5743 5743 5744 5744 5744 5745 5745 5746 5746 5746 5747 5747 5748 5748 5748 5749 5750 5751 5752 5753 5754 5756 5757 5758 5759 5761 5762 5764 5766 5767 5769
5735 5735 5734 5734 5735 5735 5735 5736 5736 5737 5737 5736 5737 5737 5737 5737 5737 5737 5738 5738 5738 5739 5739 5739 5739 5739 5739 5740 5741 5742 5742 5743 5744 5746 5747 5749 5750 5751 5753 5754 5756 5757 5759
5729 5728 5728 5728 5728 5729 5729 5729 5730 5730 5730 5730 5730 5730 5729 5730 5730 5730 5730 5731 5731 5731 5732 5731 5731 5731 5731 5732 5732 5733 5733 5733 5735 5736 5737 5739 5740 5741 5743 5744 5745 5746 5748
5723 5722 5722 5722 5722 5722 5723 5723 5723 5724 5724 5724 5723 5723 5723 5724 5723 5723 5723 5723 5723 5723 5724 5724 5724 5724 5724 5724 5724 5724 5724 5725 5725 5726 5727 5728 5730 5731 5732 5733 5734 5735 5737
5718 5717 5717 5716 5716 5716 5717 5717 5717 5717 5718 5718 5717 5717 5717 5717 5717 5717 5716 5716 5716 5715 5716 5717 5716 5716 5716 5716 5716 5716 5716 5716 5716 5717 5717 5718 5719 5720 5721 5721 5723 5724 5725
5714 5713 5712 5711 5711 5711 5711 5711 5711 5711 5711 5711 5711 5711 5711 5711 5711 5711 5710 5710 5709 5709 5709 5710 5709 5709 5709 5708 5708 5708 5707 5707 5707 5707 5707 5707 5708 5708 5709 5710 5711 5712 5714
5710 5709 5708 5707 5706 5706 5706 5706 5706 5706 5705 5705 5705 5705 5705 5705 5705 5705 5704 5704 5703 5703 5703 5703 5703 5702 5702 5701 5701 5700 5699 5699 5698 5698 5698 5697 5697 5697 5698 5699 5699 5700 5701
5706 5704 5703 5703 5702 5701 5701 5701 5700 5700 5700 5700 5700 5700 5700 5700 5700 5699 5698 5698 5697 5696 5696 5696 5696 5695 5695 5694 5693 5693 5692 5691 5690 5689 5688 5688 5687 5687 5687 5687 5688 5689 5689
5702 5701 5700 5699 5698 5697 5697 5696 5696 5695 5695 5695 5694 5694 5694 5694 5694 5693 5693 5692 5692 5691 5690 5690 5689 5689 5688 5687 5686 5685 5684 5683 5682 5680 5679 5679 5678 5677 5677 5676 5676 5677 5677
5699 5697 5695 5695 5694 5693 5692 5691 5691 5690 5690 5690 5689 5689 5689 5688 5688 5687 5687 5687 5686 5685 5685 5684 5683 5682 5681 5680 5679 5678 5677 5676 5675 5673 5672 5671 5669 5668 5667 5666 5666 5666 5666
5695 5693 5691 5690 5689 5688 5687 5686 5685 5685 5684 5684 5683 5683 5683 5682 5682 5682 5681 5680 5680 5679 5678 5678 5677 5676 5675 5674 5673 5671 5669 5667 5667 5665 5663 5662 5661 5659 5658 5657 5656 5656 5656
5691 5689 5687 5686 5684 5683 5681 5681 5680 5679 5678 5678 5678 5677 5677 5676 5675 5675 5675 5674 5673 5673 5672 5671 5671 5670 5668 5666 5665 5663 5661 5660 5659 5657 5655 5654 5652 5650 5649 5647 5646 5646 5645
5686 5684 5682 5681 5679 5678 5676 5675 5674 5673 5673 5672 5671 5671 5670 5670 5669 5669 5668 5668 5668 5667 5666 5665 5664 5662 5661 5659 5657 5656 5654 5653 5651 5649 5647 5645 5644 5642 5641 5639 5637 5636 5635
5681 5679 5677 5675 5673 5672 5671 5670 5669 5668 5667 5666 5666 5665 5665 5664 5664 5663 5662 5662 5662 5661 5660 5659 5658 5656 5655 5653 5651 5649 5647 5645 5643 5642 5639 5638 5636 5634 5633 5631 5629 5627 5626